Location: Gibsondale
(40.9931°N, 80.2478°W)
Time: 17:25:01
(UTC+00:00)

Cosmos 1076 Rocket - Pass Details

Date: 29 October 2020
Orbit: 589 x 613 km, 82.5° (Epoch: 28 November)

Event Time Altitude Azimuth Distance (km) Brightness Sun altitude
Rises 23:18:41 0° 3° (N) 2,831 6.8 -11.6°
Reaches altitude 10° 23:21:09 10° 15° (NNE) 1,927 5.9 -12.1°
Maximum altitude 23:24:50 28° 75° (ENE) 1,124 4.3 -12.8°
Drops below altitude 10° 23:28:30 10° 135° (SE) 1,921 5.7 -13.5°
Sets 23:30:57 0° 147° (SSE) 2,821 6.7 -13.9°
